Canton, GA

8:34 AM EDT on March 28, 2017 (GMT -0400)
Canton

Weather History for KCNI - February, 2014

Change the Weather History Date:

Tuesday, February 11, 2014

  Actual Average (KMGE) Record (KMGE)
Temperature  
Mean Temperature 35 °F -  
Max Temperature 37 °F 53 °F 71 °F (1999)
Min Temperature 33 °F 35 °F 23 °F (2012)
Degree Days  
Heating Degree Days 30    
Moisture  
Dew Point 32 °F    
Average Humidity 88    
Maximum Humidity 93    
Minimum Humidity 75    
Precipitation  
Precipitation 0.00 in - - ()
Sea Level Pressure  
Sea Level Pressure 30.20 in    
Wind  
Wind Speed 3 mph (ENE)    
Max Wind Speed 12 mph    
Max Gust Speed 17 mph    
Visibility 6 miles    
Events Rain , Snow    
Averages and records for this station are not official NWS values.
T = Trace of Precipitation, MM = Missing Value Source: NWS Daily Summary

Daily Weather History Graph

Daily Weather History Graph

Search for Another Location

Airport or City:

Trip Planner

Search our weather history database for the weather conditions in past years. The results will help you decide how hot, cold, wet, or windy it might be!

Date:

Astronomy

Feb. 11, 2014 Rise Set
Actual Time 7:26 AM EST 6:17 PM EST
Civil Twilight 7:00 AM EST 6:43 PM EST
Nautical Twilight 6:31 AM EST 7:12 PM EST
Astronomical Twilight 6:02 AM EST 7:42 PM EST
Moon 3:40 PM EST (2/11) 4:59 AM EST (2/11)
Length of Visible Light 11h 42m
Length of Day
10h 50m
Waxing Gibbous, 90% of the Moon is Illuminated
Feb 11
Waxing Gibbous
Feb 14
Full
Feb 22
Last Quarter
Mar 1
New
Mar 8
First Quarter

Hourly Weather History & Observations

Time (EST) Temp. Windchill Dew Point Humidity Pressure Visibility Wind Dir Wind Speed Gust Speed Precip Events Conditions
12:15 AM 35.6 °F - 30.2 °F 81% 30.14 in 10.0 mi Calm Calm - N/A   Light Drizzle
12:35 AM 35.6 °F - 30.2 °F 81% 30.13 in 10.0 mi Calm Calm - N/A   Overcast
12:55 AM 35.6 °F - 30.2 °F 81% 30.14 in 10.0 mi Calm Calm - N/A   Overcast
1:15 AM 37.4 °F - 30.2 °F 75% 30.13 in 10.0 mi Calm Calm - N/A   Drizzle
1:35 AM 35.6 °F - 32.0 °F 87% 30.14 in 7.0 mi Calm Calm - N/A   Light Drizzle
1:55 AM 35.6 °F - 32.0 °F 87% 30.14 in 7.0 mi Calm Calm - N/A Rain Rain
2:15 AM 35.6 °F - 32.0 °F 87% 30.15 in 2.0 mi Calm Calm - N/A Rain Light Rain
2:35 AM 35.6 °F - 32.0 °F 87% 30.14 in 1.8 mi Calm Calm - N/A Rain Rain
2:55 AM 35.6 °F - 33.8 °F 93% 30.14 in 1.0 mi Calm Calm - N/A Rain Light Rain
3:15 AM 35.6 °F - 33.8 °F 93% 30.13 in 1.0 mi Calm Calm - N/A Rain Light Rain
3:35 AM 35.6 °F - 33.8 °F 93% 30.12 in 1.0 mi Calm Calm - N/A   Drizzle
3:55 AM 37.4 °F 32.1 °F 33.8 °F 87% 30.12 in 2.5 mi NE 6.9 mph - N/A   Drizzle
4:15 AM 37.4 °F 31.4 °F 35.6 °F 93% 30.12 in 7.0 mi NE 8.1 mph - N/A   Drizzle
4:35 AM 37.4 °F 32.1 °F 35.6 °F 93% 30.14 in 5.0 mi NE 6.9 mph - N/A   Drizzle
4:55 AM 37.4 °F 34.9 °F 35.6 °F 93% 30.15 in 7.0 mi ENE 3.5 mph - N/A Rain Rain
5:15 AM 37.4 °F 33.8 °F 35.6 °F 93% 30.16 in 3.0 mi East 4.6 mph - N/A Rain Light Rain
5:35 AM 37.4 °F 33.8 °F 33.8 °F 87% 30.16 in 5.0 mi East 4.6 mph - N/A Rain Light Rain
5:55 AM 35.6 °F 30.7 °F 33.8 °F 93% 30.17 in 7.0 mi East 5.8 mph - N/A Rain Rain
6:15 AM 35.6 °F 30.7 °F 32.0 °F 87% 30.16 in 4.0 mi ENE 5.8 mph - N/A Rain Light Rain
6:35 AM 35.6 °F 30.7 °F 32.0 °F 87% 30.16 in 5.0 mi ENE 5.8 mph - N/A Rain Light Rain
6:55 AM 35.6 °F 31.7 °F 32.0 °F 87% 30.18 in 4.0 mi ENE 4.6 mph - N/A Rain Light Rain
7:15 AM 35.6 °F - 32.0 °F 87% 30.19 in 4.0 mi Calm Calm - N/A Rain Light Rain
7:35 AM 33.8 °F 29.6 °F 32.0 °F 93% 30.19 in 2.0 mi ENE 4.6 mph - N/A Snow Light Snow
7:55 AM 33.8 °F 28.6 °F 32.0 °F 93% 30.20 in 1.8 mi ENE 5.8 mph - N/A Snow Light Snow
8:15 AM 33.8 °F 29.6 °F 32.0 °F 93% 30.20 in 1.2 mi ENE 4.6 mph - N/A Snow Light Snow
8:35 AM 33.8 °F 28.6 °F 32.0 °F 93% 30.21 in 1.0 mi ENE 5.8 mph - N/A Snow Light Snow
8:55 AM 33.8 °F 28.6 °F 32.0 °F 93% 30.21 in 1.5 mi ENE 5.8 mph - N/A Snow Light Snow
9:15 AM 33.8 °F 27.0 °F 32.0 °F 93% 30.22 in 1.0 mi ENE 8.1 mph - N/A Snow Light Snow
9:35 AM 33.8 °F 29.6 °F 32.0 °F 93% 30.22 in 1.0 mi ENE 4.6 mph - N/A Snow Light Snow
9:55 AM 33.8 °F 29.6 °F 32.0 °F 93% 30.23 in 1.0 mi East 4.6 mph - N/A Snow Light Snow
10:15 AM 33.8 °F 30.8 °F 32.0 °F 93% 30.23 in 0.8 mi ENE 3.5 mph - N/A Snow Light Snow
10:35 AM 33.8 °F - 32.0 °F 93% 30.25 in 0.8 mi Calm Calm - N/A Snow Light Snow
10:55 AM 33.8 °F 30.8 °F 32.0 °F 93% 30.25 in 0.8 mi ENE 3.5 mph - N/A Snow Light Snow
11:15 AM 33.8 °F 30.8 °F 32.0 °F 93% 30.25 in 1.0 mi ENE 3.5 mph - N/A Snow Light Snow
11:35 AM 33.8 °F 28.6 °F 32.0 °F 93% 30.26 in 1.2 mi ENE 5.8 mph - N/A Snow Light Snow
11:55 AM 33.8 °F 27.7 °F 32.0 °F 93% 30.25 in 2.5 mi ENE 6.9 mph - N/A Snow Light Snow
12:15 PM 33.8 °F 29.6 °F 32.0 °F 93% 30.25 in 5.0 mi East 4.6 mph - N/A Snow Light Snow
12:35 PM 33.8 °F 27.7 °F 32.0 °F 93% 30.24 in 3.0 mi ENE 6.9 mph - N/A   Overcast
12:55 PM 33.8 °F 27.0 °F 32.0 °F 93% 30.23 in 3.0 mi ENE 8.1 mph - N/A Snow Light Snow
1:15 PM 33.8 °F 30.8 °F 32.0 °F 93% 30.22 in 7.0 mi ENE 3.5 mph - N/A Rain Light Rain
1:35 PM 35.6 °F 30.7 °F 32.0 °F 87% 30.22 in 7.0 mi ENE 5.8 mph - N/A Snow Light Snow
1:55 PM 35.6 °F 29.2 °F 32.0 °F 87% 30.20 in 5.0 mi ENE 8.1 mph - N/A Rain Light Rain
2:15 PM 35.6 °F 27.5 °F 32.0 °F 87% 30.20 in 7.0 mi ENE 11.5 mph 17.3 mph N/A   Light Drizzle
2:35 PM 35.6 °F 31.7 °F 32.0 °F 87% 30.21 in 10.0 mi East 4.6 mph - N/A   Overcast
2:55 PM 35.6 °F 30.7 °F 32.0 °F 87% 30.20 in 10.0 mi ENE 5.8 mph - N/A   Overcast
3:15 PM 35.6 °F 29.2 °F 32.0 °F 87% 30.19 in 7.0 mi ENE 8.1 mph - N/A Rain Light Rain
3:35 PM 35.6 °F 30.7 °F 32.0 °F 87% 30.20 in 10.0 mi ENE 5.8 mph - N/A   Overcast
3:55 PM 35.6 °F 30.7 °F 32.0 °F 87% 30.20 in 10.0 mi ENE 5.8 mph - N/A   Overcast
4:15 PM 35.6 °F 31.7 °F 32.0 °F 87% 30.20 in 10.0 mi ENE 4.6 mph - N/A   Overcast
4:35 PM 35.6 °F 32.8 °F 32.0 °F 87% 30.20 in 10.0 mi East 3.5 mph - N/A   Overcast
4:55 PM 35.6 °F - 32.0 °F 87% 30.20 in 10.0 mi Calm Calm - N/A   Overcast
5:15 PM 35.6 °F - 32.0 °F 87% 30.21 in 10.0 mi Calm Calm - N/A   Overcast
5:35 PM 35.6 °F 32.8 °F 32.0 °F 87% 30.21 in 10.0 mi ENE 3.5 mph - N/A   Overcast
5:55 PM 35.6 °F 31.7 °F 32.0 °F 87% 30.22 in 10.0 mi East 4.6 mph - N/A   Overcast
6:15 PM 35.6 °F 32.8 °F 32.0 °F 87% 30.22 in 10.0 mi East 3.5 mph - N/A   Overcast
6:35 PM 35.6 °F 32.8 °F 32.0 °F 87% 30.23 in 10.0 mi East 3.5 mph - N/A   Overcast
6:55 PM 35.6 °F 31.7 °F 32.0 °F 87% 30.24 in 10.0 mi East 4.6 mph - N/A   Overcast
7:15 PM 35.6 °F 30.7 °F 32.0 °F 87% 30.23 in 10.0 mi East 5.8 mph - N/A   Overcast
7:35 PM 35.6 °F 30.7 °F 32.0 °F 87% 30.23 in 10.0 mi ENE 5.8 mph - N/A   Overcast
7:55 PM 35.6 °F 31.7 °F 32.0 °F 87% 30.22 in 10.0 mi East 4.6 mph - N/A   Overcast
8:15 PM 35.6 °F 29.9 °F 32.0 °F 87% 30.22 in 7.0 mi East 6.9 mph - N/A   Overcast
8:35 PM 33.8 °F 28.6 °F 32.0 °F 93% 30.23 in 5.0 mi East 5.8 mph - N/A   Overcast
8:55 PM 33.8 °F 26.4 °F 32.0 °F 93% 30.24 in 5.0 mi East 9.2 mph 16.1 mph N/A   Overcast
9:15 PM 33.8 °F 27.0 °F 30.2 °F 87% 30.23 in 7.0 mi East 8.1 mph - N/A   Overcast
9:35 PM 33.8 °F 27.7 °F 30.2 °F 87% 30.23 in 10.0 mi ENE 6.9 mph - N/A   Overcast
9:55 PM 33.8 °F 27.0 °F 30.2 °F 87% 30.24 in 10.0 mi East 8.1 mph - N/A   Overcast
10:15 PM 33.8 °F 27.0 °F 28.4 °F 81% 30.24 in 10.0 mi East 8.1 mph - N/A   Overcast
10:35 PM 33.8 °F 27.7 °F 28.4 °F 81% 30.24 in 10.0 mi ENE 6.9 mph - N/A   Mostly Cloudy
10:55 PM 33.8 °F 29.6 °F 28.4 °F 81% 30.24 in 10.0 mi ENE 4.6 mph - N/A   Mostly Cloudy
11:15 PM 33.8 °F 29.6 °F 28.4 °F 81% 30.26 in 10.0 mi ENE 4.6 mph - N/A   Overcast
11:35 PM 33.8 °F 26.4 °F 28.4 °F 81% 30.23 in 10.0 mi ENE 9.2 mph - N/A   Overcast
11:55 PM 33.8 °F 27.7 °F 28.4 °F 81% 30.23 in 10.0 mi ENE 6.9 mph - N/A   Overcast